Погода в Мальборке

Польша     54°01′42″N   19°02′21″E
темп.,
°C
ветер,
м/с
пор.,
м/с
влажн.,
%
обл.,
%
осадки,
мм/ч
давл.,
гПа
погр.,
м
27 февраля, сб
сб2701:00+3зсз5128918 0.0 1024366
04:00+2зсз412910 0.0 1025316
07:00+2сз411910 0.0 1027277
10:00+5ссз69840 0.0 1029687
13:00+6ссз69730 0.0 1031999
16:00+5ссз48770 0.0 1031621
19:00+1зсз37870 0.0 1032146
22:00+1зсз36870 0.0 1033128
28 февраля, вс
вс2801:00+2з358237 0.0 1033128
04:00+1з488967 0.0 1031182
07:00+1зюз369635 0.0 1031146
10:00+4зсз589187 0.0 1030611
13:00+5ссз578393 0.0 1031725
16:00+5ссз368797 0.0 1030476
19:00+2сз349254 0.0 103286
22:00+1сз23910 0.0 103252
1 марта, пн
пн101:00+1зсз22880 0.0 103422
04:00+2зсз22860 0.0 103322
07:00+2з23840 0.0 103423
10:00+7зюз34710 0.0 1033218
13:00+10зюз46660 0.0 1033460
16:00+9зюз47730 0.0 1032190
19:00+5зюз34870 0.0 103276
22:00+3зюз36900 0.0 1032112
2 марта, вт
вт201:00+2зюз34910 0.0 103267
04:00+1зюз34930 0.0 103181
07:00+1зюз36930 0.0 103196
10:00+6з36800 0.0 1031442
13:00+10з46670 0.0 1031706
16:00+10з36730 0.0 1030255
19:00+5сз22880 0.0 103025
22:00+3зсз12922 0.0 103123
3 марта, ср
ср301:00+2з129211 0.0 103022
04:00+1зюз22910 0.0 102922
07:00+1юз23902 0.0 102926
10:00+6юз247276 0.0 1029276
13:00+10зюз346149 0.0 1027590
16:00+10ююз23713 0.0 1025114
19:00+6юз34851 0.0 102369
22:00+4зюз35900 0.0 102296